Вернуться в каталог

KUIPER-00440

АктивенСвязьLEO
NORAD 68942·PAYLOAD·🇺🇸 United States

Запущен Apr 30, 2026 с Guiana Space Centre

Loading…

Ближайшие Пролёты (ближайшие 24 часа)

TLE

СвежийSource: CelesTrak SupGP

Эпоха: Sep 14, 2026, 18:05 UTC

1 68942C 26098Z   26257.75381944  .00007445  00000+0  97466-3 0  2578
2 68942  51.9037  12.1100 0000317   5.6597  53.9048 14.79919870    19

Отслеживайте KUIPER-00440 в реальном времени с AllMySat

Download on the App Store